Location: Willingham
(52.3167°N, 0.0667°E)
Time: 20:48:47
(UTC+00:00)

Helios 1A - Pass Details

Date: 19 May 2025
Orbit: 544 x 570 km, 98.3° (Epoch: 03 June)

Event Time Altitude Azimuth Distance (km) Brightness Sun altitude
Rises 20:41:16 0° 15° (NNE) 2,790 6.9 -6.2°
Reaches altitude 10° 20:43:25 10° 17° (NNE) 1,885 6.0 -6.5°
Maximum altitude 20:47:31 81° 104° (ESE) 582 2.9 -6.9°
Drops below altitude 10° 20:51:33 10° 193° (SSW) 1,858 5.2 -7.3°
Sets 20:53:40 0° 194° (SSW) 2,746 6.1 -7.6°
